www.pogodaiklimat.ru

АРХИВ ПОГОДЫ в Ростове-на-Дону

Время (UTC), дата Ветер
(напр.,м/с)
 
Видим.   Явления Облачность Т
(С)
Тd
(С)
f
(%)
Тe
(С)
Тes
(С)
Комфортность P
(гПа)
Po
(гПа)
Тmin
(С)
Tmax
(С)
R
(мм)
S
(см)
21 9.01 В 4 8000 м 10/10 330 м
[Sc]
-0.8 -2.4 89 -7 -7 по сезону 1021.0 1011.5
00 10.01 В 4 8000 м 10/10 420 м
[St]
-1.2 -2.7 90 -7 -7 по сезону 1021.9 1012.4
03 10.01 В 3 8000 м {снег} 10/10 300 м
[St]
-1.7 -3.0 91 -7 -7 по сезону 1022.5 1013.0 -1.7 0.0
06 10.01 В 2 10 км {снег} 10/8 570 м
[Sc Ac und]
-1.4 -3.5 86 -5 -5 по сезону 1024.7 1015.2
09 10.01 В 2 10 км слабый снег 10/8 400 м
[Sc Ac und]
-0.5 -3.2 82 -4 -4 по сезону 1025.7 1016.2
12 10.01 ЮВ 1 10 км слабый снег 10/6 1170 м
[Sc Ac und]
+0.5 -3.1 77 -1 -1 по сезону 1025.8 1016.3
15 10.01 В 3 10 км {снег} 10/6 480 м
[Sc Ac und]
-0.1 -2.9 81 -5 -5 по сезону 1026.2 1016.7 +0.7 0.0
18 10.01 В 4 8000 м {снег} 10/10 480 м
[Sc]
-0.5 -2.7 85 -6 -6 по сезону 1027.2 1017.7
21 10.01 В 4 8000 м дымка 10/10 420 м
[Sc]
-1.2 -3.0 88 -7 -7 по сезону 1027.4 1017.9
00 11.01 В 4 8000 м 10/10 480 м
[Sc]
-1.3 -3.2 87 -7 -7 по сезону 1027.3 1017.8
03 11.01 В 5 8000 м 10/10 270 м
[St]
-2.4 -4.1 88 -9 -9 по сезону 1026.9 1017.3 -2.4
06 11.01 В 5
{10}
10 км снежные зёрна 10/10 150 м
[St]
-2.9 -3.9 93 -10 -10 по сезону 1027.2 1017.6 -3.2
09 11.01 В 6 3800 м слабая переохл. морось (гололёд) {снег} [диам. гололёда 1 мм] 10/10 120 м
[St]
-2.3 -3.0 95 -10 -10 прохладно 1026.7 1017.1
12 11.01 В 7
{10}
8000 м снежные зёрна {морось} 10/10 150 м
[St]
-2.3 -3.2 94 -10 -10 прохладно 1025.2 1015.6
15 11.01 В 5
{11}
8000 м {снег} 10/10 210 м
[St]
-2.0 -3.2 91 -9 -9 по сезону 1025.8 1016.2 -2.0
18 11.01 В 4
{11}
8000 м {снег} 10/10 240 м
[St]
-1.0 -2.2 92 -7 -7 по сезону 1026.1 1016.6
21 11.01 В 3 6000 м дымка {снег} [диам. гололёда 1 мм] 9/8 240 м
[Sc Ac und]
-1.5 -2.3 94 -7 -7 по сезону 1024.9 1015.4
00 12.01 В 3 2200 м туман {снег} [диам. гололёда 1 мм] 6/4
[St Ac trans]
-2.6 -3.2 96 -8 -8 по сезону 1024.5 1014.9
03 12.01 В 2 4600 м дымка {туман} 5/3
[St Ac trans]
-2.7 -3.3 96 -7 -7 по сезону 1022.5 1013.0 -3.1
06 12.01 В 5 4700 м дымка {туман} 5/0
[Ac trans]
-1.7 -2.4 95 -8 -8 по сезону 1020.2 1010.7
09 12.01 В 5 10 км 8/0
[Ac trans Ci fib]
+2.7 +0.6 86 -3 -2 по сезону 1016.9 1007.6
12 12.01 ЮВ 5
{10}
10 км 9/0
[Ac trans]
+6.6 +0.2 64 +3 +3 тепло 1013.5 1004.4
15 12.01 В 6 8000 м 8/0
[Ac trans Ci fib]
+3.4 -0.6 75 -2 -2 по сезону 1011.5 1002.3 +7.2
18 12.01 В 6 7000 м дым 9/4
[St Ac trans Ci fib]
-0.8 -1.8 93 -8 -8 по сезону 1010.7 1001.3
21 12.01 В 5
{10}
5000 м дымка 9/3
[St Ac trans Ci fib]
-0.6 -1.5 94 -7 -7 по сезону 1009.0 999.7
00 13.01 ЮЗ 10-13
{17}
7000 м дымка 10/5 180 м
[St Ac und]
-0.1 -1.4 91 -8 -8 по сезону 1011.1 1001.8
03 13.01 ЮЗ 10-13
{18}
8000 м 9/6 360 м
[Sc Ac trans]
-1.6 -3.6 86 -10 -10 по сезону 1013.9 1004.5 -1.6
06 13.01 ЮЗ 7-10
{18}
10 км 5/3
[St Ac trans]
-1.5 -4.0 83 -9 -9 по сезону 1015.5 1006.1 -2.1
09 13.01 З 6
{14}
10 км 8/3
[Sc Ac trans Ci fib]
-0.3 -4.3 74 -7 -6 по сезону 1017.1 1007.7
12 13.01 ЮЗ 6
{14}
10 км 8/5
[Sc Ac trans]
+0.2 -5.0 68 -6 -6 по сезону 1018.7 1009.3
15 13.01 З 6 8000 м 8/4
[Sc Ac trans]
-0.7 -4.3 77 -7 -7 по сезону 1020.6 1011.1 +0.8
18 13.01 З 3 6000 м дым 9/5
[Sc Ac trans]
-0.6 -3.4 81 -5 -5 по сезону 1021.6 1012.1
21 13.01 В 1 2700 м дымка 3/0
[Ac trans]
-4.3 -5.4 92 -7 -7 по сезону 1022.0 1012.4
00 14.01 В 3 5000 м дымка 3/0
[Ac trans]
-5.0 -6.1 92 -11 -11 прохладно 1022.6 1013.0
03 14.01 В 3 6000 м дымка 3/0
[Ac trans]
-5.3 -6.6 91 -11 -11 прохладно 1022.3 1012.7 -6.2
06 14.01 В 5 5000 м дымка 8/0
[Ac trans Ci fib]
-3.0 -4.0 93 -10 -10 по сезону 1021.6 1012.1 -6.2
09 14.01 В 5 10 км 5/0
[Ac trans Ci fib]
+2.3 -1.4 77 -3 -2 по сезону 1020.2 1010.9
12 14.01 В 7 10 км 5/0
[Ac trans Ci fib]
+4.5 -1.5 65 -1 -1 по сезону 1019.2 1009.9
15 14.01 В 7-10
{10}
7000 м дымка 9/5 180 м
[St Ac trans]
-0.4 -1.8 90 -8 -8 по сезону 1019.8 1010.4 +5.3
18 14.01 В 8-11
{12}
4000 м дымка 9/6 210 м
[St Ac trans]
-1.3 -2.7 90 -9 -9 по сезону 1019.7 1010.2
21 14.01 ЮВ 7-10
{14}
8000 м 10/8 360 м
[St Ac und]
+0.1 -1.8 87 -7 -7 по сезону 1018.3 1008.9
00 15.01 В 8-11
{14}
8000 м 9/6 480 м
[Sc Ac trans]
+0.9 -1.7 83 -6 -6 по сезону 1018.2 1008.8
03 15.01 ЮВ 8-11
{13}
10 км 9/6 300 м
[St Ac trans]
0.0 -2.0 86 -8 -8 по сезону 1017.9 1008.5 -1.4
06 15.01 В 8-10
{13}
10 км 9/6 270 м
[St Ac trans]
-0.8 -2.5 88 -9 -9 по сезону 1018.4 1009.0
09 15.01 ЮВ 7
{11}
10 км 9/6 300 м
[St Ac trans]
-0.1 -2.1 86 -7 -7 по сезону 1018.4 1009.0
12 15.01 ЮВ 7-10
{11}
10 км 9/6 360 м
[St Ac trans]
+1.0 -1.7 82 -6 -6 по сезону 1018.5 1009.1
15 15.01 В 6
{10}
8000 м 9/5 270 м
[St Ac trans]
+0.2 -1.3 90 -6 -6 по сезону 1019.0 1009.6 +1.1
18 15.01 В 5 7000 м дымка 10/6 210 м
[St Ac und]
+0.7 -0.6 91 -5 -5 по сезону 1019.5 1010.1
21 15.01 В 3 7000 м дымка 10/8 300 м
[St Ac und]
+1.0 -0.2 92 -4 -4 по сезону 1020.1 1010.7
00 16.01 В 4 5000 м дымка 10/5 400 м
[St Ac und]
+1.0 -0.1 92 -4 -4 по сезону 1020.8 1011.4
03 16.01 В 3 300 м ливневой снег ?/? +0.4 -0.2 96 -4 -4 по сезону 1020.6 1011.2 +0.1 2
06 16.01 В 4 200 м ливневой снег туман ?/? +0.4 -0.1 96 -5 -5 по сезону 1021.5 1012.1
09 16.01 ЮВ 2 3500 м слабый дождь {ливн. осадки, снег} 10/8 180 м
[Sc As op]
+0.9 +0.4 96 -3 -3 по сезону 1021.6 1012.2
12 16.01 Ю 1 1500 м слабый дождь {ливн. осадки, снег} 10/8 90 м
[Frnb As op]
+1.9 +1.2 95 0 0 тепло 1022.0 1012.6
15 16.01 В 1 200 м туман {снег} ?/? +2.1 +1.4 95 0 0 тепло 1022.7 1013.3 +2.3 5
18 16.01 В 2 1700 м дымка {дождь, туман} 10/6 150 м
[Sc As op]
+2.2 +1.6 96 -1 -1 тепло 1023.3 1013.9

 

Местоположение метеостанции Ростов-на-Дону (Ростовская область, Россия): широта 47.27 долгота 39.82 высота над уровнем моря 75 м.

В архиве по умолчанию представлена погода в Ростове-на-Дону за последнюю неделю. Архивные данные за месяц целиком и за предыдущие месяцы, начиная с января 2011 года, Вы можете получить, выбрав интересующий диапазон дат из раскрывающегося списка и нажав кнопку "Ввод!".

Внимание! Время в таблицах - всемирное. Для получения местного времени необходимо прибавить поправку, которая в Ростове-на-Дону равна 3 ч.

Ветер - указаны скорость ветра в м/с - средняя за 10 мин, порывы в срок и между сроками (в фигурных скобках) и направление, откуда дует ветер: С - северный, СВ - северо-восточный, В - восточный, ЮВ - юго-восточный, Ю - южный, ЮЗ - юго-западный, З - западный, СЗ - северо-западный.
Видимость - горизонтальная дальность видимости в метрах или километрах. При видимости от 1 до 10 км при отсутствии осадков обычно наблюдается дымка, при ухудшении видимости до 1 км и менее - туман. В сухую погоду видимость может ухудшаться дымом, пылью или мглою.
Явления - указаны атмосферные явления, наблюдавшиеся в срок или в последний час перед сроком; фигурными скобками обозначены явления, наблюдавшиеся между сроками (за 1-3 часа до срока); квадратными скобками обозначены град или гололедные отложения с указанием их диаметра в мм.
Облачность - указаны через наклонную черту общая и нижняя облачность в баллах и высота нижней границы облаков в метрах; квадратными скобками обозначены формы облаков: Ci - перистые, Cs - перисто-слоистые, Cc - перисто-кучевые, Ac - высококучевые, As - высокослоистые, Sc - слоисто-кучевые, Ns - слоисто-дождевые, Cu - кучевые, Cb - кучево-дождевые. Подробнее классификацию облаков см. в Атласе облаков (PDF).
T - Температура воздуха - температура, измеренная на высоте 2 м над землей.
Td - Температура точки росы - температура, при понижении до которой содержащийся в воздухе водяной пар достигнет насыщения.
f - Относительная влажность воздуха - влажноcть воздуха, измеренная на высоте 2 м над землей.
Te - Эффективная температура - температура, которую ощущает одетый по сезону человек в тени. Характеристика душности погоды. При расчете учитывается влияние влажности воздуха и скорости ветра на теплоощущения человека.
Tes - Эффективная температура на солнце - температура, которую ощущает человек, с поправкой на солнечный нагрев. Характеристика знойности погоды. Зависит от высоты солнца над горизонтом, облачности и скорости ветра. Ночью, в пасмурную погоду, а также при ветре 12 м/с и более поправка равна нулю.
P - Атмосферное давление - приведенное к уровню моря атмосферное давление.
Po - Атмосферное давление - измеренное на уровне метеостанции атмосферное давление.
Tmin - Минимальная температура - минимум температуры воздуха на высоте 2 м над землей.
Tmax - Максимальная температура - максимум температуры воздуха на высоте 2 м над землей.
R - Количество осадков - Количество выпавших осадков, мм. При наведении курсора мыши на число - период времени, за который выпало указанное количество осадков.
S - Снежный покров - Высота снежного покрова, см. При наведении курсора мыши на число - состояние снежного покрова и степень покрытия местности в баллах.